Theta_e
298 297 295 295 295 294 293 293 294 294 294 293 294 293 293 293 293 293 293 292 292 292 291 291 291 291 292 292 292 292 292 292 292 292 293 293 294 298 303 307 311 314 315 317 318 319 319 319 320 320 319 319 320 320 320 320 320 320 321 321 321 321 320 320 320 320 320 320 320 321 321 322 322 322 322 322 322 323 323 323 324 325 326 327 328
297 295 294 293 293 293 293 293 293 293 293 293 293 293 292 292 292 292 292 293 293 292 291 291 291 291 291 291 291 291 291 292 292 292 293 293 293 295 298 303 307 311 312 313 315 318 319 319 319 318 318 319 319 319 319 319 319 319 319 320 319 319 319 320 319 319 319 319 319 320 320 320 320 320 321 321 321 321 322 322 323 324 325 326 327
296 294 293 293 292 293 292 292 292 293 293 293 292 292 292 292 292 292 292 292 292 291 291 291 290 290 290 291 291 291 291 291 292 292 292 292 293 293 295 298 303 306 310 312 314 315 315 314 315 316 318 319 318 318 319 318 318 318 318 318 318 319 319 319 318 318 318 318 318 318 319 319 319 319 320 320 320 321 321 321 322 323 323 324 324
295 293 293 292 292 292 292 292 293 292 292 292 292 292 292 291 291 291 291 292 290 290 290 290 290 290 290 290 290 291 291 291 292 292 292 292 292 293 294 296 298 301 305 309 311 311 311 311 312 313 315 316 317 317 317 317 317 317 318 317 317 317 317 317 317 317 316 317 317 317 318 318 319 319 319 319 319 320 320 320 321 321 322 322 323
294 293 293 292 292 292 291 292 292 292 292 292 292 292 291 291 291 290 290 290 290 290 290 290 290 289 290 290 290 290 290 291 291 291 292 292 291 292 293 295 295 295 298 303 306 308 308 309 309 311 312 314 316 316 316 316 316 317 317 317 317 316 317 317 316 316 316 316 317 316 317 317 318 318 318 318 318 318 319 319 320 320 320 321 321
293 293 293 291 291 291 292 291 292 292 292 292 291 291 291 290 290 290 291 291 290 290 290 290 289 289 289 289 290 290 290 291 291 291 291 291 291 292 292 293 294 294 294 296 301 303 305 306 307 308 309 311 313 314 314 315 315 316 316 316 316 316 316 316 315 316 316 316 316 316 316 317 317 318 317 317 318 318 318 318 318 319 319 319 319
294 293 292 291 291 290 291 291 291 292 291 291 291 291 290 290 290 291 290 290 291 290 290 290 289 289 289 289 290 289 290 290 291 291 291 291 291 291 291 292 293 293 293 292 295 298 300 302 303 306 307 308 310 311 311 313 314 315 315 315 316 315 315 314 315 315 315 315 315 315 315 316 316 316 317 316 316 316 317 317 317 318 318 319 319
293 293 291 291 291 290 291 290 291 291 291 290 290 290 289 290 290 290 289 289 290 289 289 289 289 289 289 289 289 290 290 290 291 291 291 291 290 290 291 292 292 292 291 291 291 294 297 298 299 301 303 304 306 308 309 311 313 313 313 314 314 314 313 314 314 314 314 314 314 314 314 315 315 315 315 315 315 315 316 316 316 316 317 317 317
293 293 292 291 290 290 290 290 291 291 290 290 290 290 289 289 288 289 290 290 290 289 289 289 288 288 288 288 289 289 290 290 291 290 291 291 290 290 290 291 291 290 290 290 291 291 293 295 296 296 298 300 302 305 305 307 311 312 313 312 312 312 312 312 312 313 312 313 313 313 314 314 314 314 314 314 315 315 315 315 315 315 316 316 316
293 292 292 291 291 290 289 290 290 290 290 289 289 289 289 289 288 288 287 290 289 289 288 288 288 288 287 288 288 289 289 290 291 290 290 290 289 289 289 289 290 290 290 290 290 290 290 291 292 292 293 296 299 301 303 303 308 310 311 311 311 311 311 311 311 311 312 312 312 312 312 312 312 313 313 313 313 314 314 314 315 315 315 315 315
293 292 292 291 290 289 289 289 290 289 289 289 289 288 288 287 288 288 287 288 289 289 288 288 288 287 287 286 287 288 289 289 288 289 289 291 290 289 290 289 289 289 290 290 290 290 290 290 289 290 290 293 296 298 299 300 302 306 308 309 310 310 310 311 310 311 310 310 310 310 311 311 311 311 311 311 311 311 312 312 313 313 314 314 315
292 292 292 291 289 288 289 289 289 289 289 288 288 288 287 287 288 288 288 288 287 288 288 288 287 287 287 287 288 288 287 287 288 288 288 289 289 289 289 288 289 289 289 289 290 290 289 289 289 288 289 290 292 293 295 295 297 302 305 308 310 310 311 310 309 309 309 309 309 310 309 309 309 310 310 310 310 310 311 312 312 312 312 313 314
292 292 291 291 290 288 288 288 289 289 289 289 289 289 288 288 288 288 288 287 287 286 288 289 288 285 287 287 287 288 288 287 287 288 288 288 288 289 289 289 289 289 289 289 289 289 289 288 288 288 288 289 289 290 291 291 293 298 303 306 309 310 310 309 309 308 307 308 307 307 308 308 308 309 309 309 310 310 310 310 311 312 312 312 313
292 291 291 291 289 288 288 288 288 288 289 289 288 288 287 287 288 287 287 288 288 286 286 288 289 288 285 285 285 287 288 287 287 287 287 288 288 288 289 289 288 288 289 288 288 288 288 288 288 287 288 288 289 289 289 289 291 294 299 304 307 308 308 308 308 307 307 307 306 306 307 307 307 308 308 308 309 309 309 309 310 310 311 311 312
292 291 291 290 289 288 288 288 288 288 288 287 288 287 286 286 287 288 286 287 287 286 286 287 290 288 290 287 285 284 286 286 287 286 286 287 288 288 288 288 288 288 288 287 287 287 287 288 287 287 287 287 288 288 288 288 289 290 293 296 301 305 307 308 307 306 306 305 305 305 306 305 306 307 307 308 308 308 309 308 309 309 310 310 311
292 291 291 290 290 289 288 288 288 289 288 287 287 287 286 286 287 288 289 286 287 286 287 285 286 290 288 288 285 287 284 284 285 286 285 285 287 287 287 287 287 288 287 287 286 287 287 287 287 286 286 287 287 288 288 288 288 289 289 291 297 300 302 305 306 305 304 304 304 304 304 304 305 306 306 307 307 307 307 307 308 309 309 309 309
291 291 291 290 290 290 288 288 288 288 288 288 287 287 286 287 287 287 288 289 286 287 285 285 285 285 290 283 284 285 289 287 285 285 284 285 285 286 287 286 287 287 286 286 286 286 287 287 286 286 286 286 287 287 287 288 288 288 289 290 296 297 296 301 303 303 302 303 304 303 304 304 304 305 305 306 306 306 306 306 307 308 308 308 309
291 291 291 291 290 290 289 288 288 287 288 288 287 287 286 286 286 287 288 290 289 286 285 286 285 287 285 287 291 296 288 285 286 285 283 285 285 285 286 286 286 286 286 286 286 286 286 286 286 286 286 286 286 287 287 287 288 288 289 292 297 297 296 297 299 300 300 302 303 303 303 304 304 304 304 305 305 305 306 307 307 307 308 308 309
291 291 291 291 290 289 289 288 288 287 287 287 287 287 286 286 287 286 288 288 288 287 286 285 284 285 285 286 286 284 289 286 286 285 284 284 284 284 285 285 285 285 285 285 285 285 286 285 285 285 285 286 286 286 287 287 286 287 287 291 295 296 295 295 295 296 297 299 301 302 302 302 302 303 303 304 304 304 305 305 306 307 307 308 308
291 291 291 290 290 289 289 288 287 287 287 286 287 287 287 287 287 287 287 287 288 289 287 285 286 285 284 285 284 284 284 286 289 290 289 285 284 283 284 284 284 285 285 285 285 285 285 285 285 285 285 285 286 286 286 286 286 287 287 291 294 295 294 294 293 293 294 296 299 300 301 301 302 302 302 303 303 303 304 305 305 305 306 307 307
291 290 290 290 290 289 288 288 287 287 287 287 287 287 286 286 285 285 285 285 286 289 287 285 287 286 283 282 284 284 284 285 284 287 287 287 285 283 285 284 284 284 284 284 284 285 285 285 285 285 285 286 285 285 285 286 286 286 288 290 292 293 293 292 292 292 292 294 296 297 298 299 300 300 301 301 302 303 304 304 305 305 306 306 306
290 290 290 290 290 289 288 288 287 287 287 287 287 286 286 286 286 286 286 285 286 287 287 286 287 286 286 285 285 283 284 284 285 283 283 286 287 284 285 285 284 285 283 283 284 284 284 284 284 284 284 285 285 285 285 285 286 287 288 289 290 290 291 291 292 292 292 293 294 294 296 297 298 299 300 300 301 302 303 304 304 304 305 305 306
289 289 289 289 289 289 288 288 288 287 287 287 286 286 286 286 286 286 286 286 285 285 287 287 286 286 286 285 286 286 286 284 284 284 286 283 281 282 282 283 284 284 284 282 283 284 283 283 283 284 284 285 284 284 285 285 285 287 287 288 288 288 290 291 291 290 291 293 293 293 294 294 295 296 298 299 301 302 303 303 303 303 304 304 305
289 288 288 289 289 288 288 288 287 287 286 287 286 286 286 286 285 285 285 285 286 285 286 285 285 285 285 286 287 288 288 288 286 286 285 286 286 284 284 282 281 282 283 282 283 283 283 283 283 284 284 284 284 284 284 285 286 286 286 285 286 287 288 289 289 290 291 291 291 292 293 293 294 294 296 298 300 301 301 302 302 302 303 304 304
288 288 288 288 288 288 287 287 287 287 287 287 287 286 286 285 285 285 285 285 284 285 285 285 284 284 284 285 286 286 286 286 286 285 286 286 286 282 282 282 283 283 281 280 281 282 282 283 283 284 284 284 284 284 285 285 287 286 283 283 284 285 285 286 287 289 290 291 291 291 292 292 293 294 295 296 298 299 300 300 301 301 302 303 303
288 288 289 288 288 288 288 287 287 287 287 286 286 286 285 284 285 284 284 285 285 285 285 286 285 286 286 284 284 284 285 284 285 285 284 283 283 283 281 279 279 280 280 280 280 280 282 282 283 283 283 283 283 284 284 285 287 285 283 282 282 283 284 286 288 289 290 290 291 291 291 291 292 293 293 295 296 297 298 299 300 300 301 301 302
289 289 289 288 288 288 288 287 287 287 286 286 285 285 285 285 284 285 284 285 284 284 284 285 283 284 284 284 284 284 283 283 284 284 285 286 285 283 282 279 278 278 278 279 279 280 282 282 283 282 283 283 283 283 284 285 284 283 282 283 282 281 283 285 287 288 289 289 290 290 290 290 291 292 292 292 294 294 296 297 298 299 299 300 300
290 290 289 289 288 288 288 287 287 287 286 286 285 285 284 284 284 284 284 284 283 283 284 284 283 284 284 284 283 283 282 282 283 284 284 286 285 284 285 284 282 280 279 279 278 279 281 281 282 282 282 283 283 283 283 282 283 282 282 282 282 281 282 284 286 287 288 289 289 289 289 290 290 291 291 292 292 292 293 294 295 295 296 296 296
289 289 289 289 288 288 287 287 287 286 286 285 285 285 284 284 283 283 283 283 283 283 283 283 283 283 283 283 283 283 282 282 282 283 283 283 284 284 285 285 285 284 282 281 280 279 279 281 280 282 282 282 283 283 282 282 281 282 283 282 281 281 281 283 285 287 287 288 288 288 289 289 290 290 291 291 292 292 293 294 294 295 295 295 296
289 288 288 288 287 287 287 287 286 286 285 285 285 284 283 283 284 283 283 283 282 283 283 282 283 282 282 282 282 282 282 281 282 282 282 282 282 282 282 283 284 284 282 281 281 280 279 279 280 280 280 281 282 281 281 281 281 281 282 281 281 281 281 282 284 285 286 287 287 288 289 289 289 290 290 291 291 292 293 293 293 294 294 295 296
288 288 287 287 287 287 287 286 286 285 285 284 284 284 283 283 283 283 283 282 282 282 282 282 282 281 281 281 281 281 281 281 281 281 281 281 281 281 281 281 281 283 282 281 280 280 280 278 279 280 280 280 280 280 280 280 280 280 281 280 280 280 281 281 282 283 284 285 286 287 288 288 289 289 290 290 291 291 292 292 292 292 293 293 294
288 287 287 287 287 286 286 286 285 285 284 284 284 283 283 283 282 282 282 281 281 281 281 281 281 281 281 280 280 280 280 280 280 280 280 281 281 280 280 280 280 280 281 281 280 279 277 279 279 278 279 279 279 279 279 280 280 279 280 280 280 280 280 280 281 282 283 284 286 287 287 288 289 289 289 290 290 291 291 291 291 292 292 292 293
287 287 286 286 286 286 286 285 285 284 284 283 283 283 282 282 282 282 281 281 280 281 281 280 280 280 280 280 280 280 280 279 280 279 279 279 279 280 279 279 279 279 280 279 278 279 277 278 278 278 278 278 278 279 278 279 279 279 279 280 280 280 280 280 280 281 282 284 285 286 287 288 288 289 289 289 289 289 290 290 291 290 291 292 292
287 287 286 286 286 286 286 285 285 284 284 283 283 282 282 282 281 282 281 280 280 281 280 279 279 280 280 279 279 279 279 279 279 278 279 278 278 278 278 278 278 278 279 278 279 278 277 277 276 277 277 278 277 279 277 277 278 279 278 279 280 280 280 280 281 281 282 283 285 286 287 287 288 288 288 288 288 289 289 290 290 290 290 291 291
286 286 286 286 286 286 285 285 285 284 284 283 283 282 282 282 281 281 281 280 280 280 280 279 279 279 279 279 279 279 278 278 278 278 278 278 278 278 277 278 278 278 278 278 278 276 277 276 277 276 276 277 276 277 277 277 278 278 278 278 279 280 280 281 281 281 282 284 285 286 286 286 287 287 287 287 287 288 288 289 289 289 290 290 290
286 286 286 286 285 285 285 285 284 284 284 283 283 282 282 282 282 281 281 280 280 281 280 280 280 279 279 279 279 278 278 277 277 277 278 278 277 277 277 277 277 277 277 277 278 278 277 275 275 275 276 275 276 277 277 277 277 277 278 279 279 279 280 280 280 281 281 283 284 285 285 285 285 285 286 286 286 287 288 288 288 289 289 289 289
286 286 285 286 285 285 284 284 284 284 284 283 283 282 282 282 282 282 281 281 280 281 281 280 281 279 279 279 279 278 278 277 277 276 277 276 277 277 276 276 276 276 276 276 276 276 275 275 274 275 276 276 276 276 277 276 277 278 278 278 278 279 279 280 281 281 281 283 283 283 283 283 284 284 285 285 286 286 287 287 288 288 288 288 288
286 285 285 285 285 285 285 285 285 284 284 284 283 282 282 282 282 282 282 281 281 281 281 281 280 280 279 279 279 278 278 277 277 276 276 276 276 276 276 276 276 275 275 275 276 275 275 274 274 273 274 274 274 275 277 277 276 276 277 278 279 279 279 279 280 280 281 281 280 281 281 281 282 283 284 284 285 285 286 287 287 287 286 286 286
286 285 285 285 285 285 285 285 284 284 284 284 283 283 282 282 282 281 281 281 280 280 281 281 280 280 280 280 279 278 278 278 277 276 276 276 276 275 275 275 275 275 274 274 274 274 274 273 274 274 274 275 275 275 277 278 277 277 276 277 277 279 279 278 278 279 280 280 281 282 282 282 282 282 283 283 284 285 285 285 285 286 285 284 284
286 286 285 285 285 285 285 285 285 285 284 284 283 283 283 282 282 281 281 281 280 280 280 280 280 280 280 280 280 279 278 278 278 277 277 276 276 275 276 275 275 274 274 274 273 273 273 273 272 273 274 274 275 276 277 277 276 276 277 276 275 276 277 278 278 278 279 279 279 280 280 281 281 281 282 282 282 283 283 283 282 282 282 282 283
286 286 286 285 284 284 285 284 284 284 284 284 283 283 282 282 282 281 281 281 280 280 280 280 280 280 279 279 279 279 278 279 280 279 278 278 276 275 275 275 274 274 274 273 273 273 272 272 272 273 274 274 275 275 275 275 275 275 277 278 276 276 277 276 278 279 279 278 279 279 279 280 279 279 279 279 279 279 279 280 281 281 281 281 283
286 286 285 285 285 284 284 284 284 284 284 284 284 285 285 282 281 281 281 281 281 280 280 280 279 279 279 279 279 280 280 280 280 280 280 280 279 277 276 275 274 274 273 272 272 272 272 271 272 273 273 273 274 275 275 276 277 277 276 276 275 276 276 276 277 278 280 279 278 277 278 280 278 278 278 277 278 278 278 278 278 279 280 282 283
285 285 284 284 284 284 284 284 283 283 284 284 285 286 286 286 283 282 281 281 281 280 280 279 279 278 278 278 278 279 280 280 279 281 281 281 280 279 279 278 277 274 272 272 271 272 272 272 273 274 274 274 275 276 276 276 277 276 276 276 275 275 275 274 273 277 280 278 277 276 276 278 278 275 276 276 277 277 278 278 279 280 281 283 284
284 284 284 284 284 284 284 283 283 283 283 285 286 287 287 287 285 282 282 281 280 280 280 279 279 278 278 277 277 277 278 279 279 279 280 281 281 280 280 279 279 278 278 274 272 272 272 273 273 274 274 274 275 276 276 276 276 276 276 276 275 275 274 274 274 274 278 279 276 274 273 276 276 275 274 275 276 277 277 278 280 281 282 282 283
284 284 284 284 284 284 283 283 283 284 283 286 287 287 287 287 287 284 281 281 280 280 280 279 279 278 278 277 276 276 277 279 279 279 279 279 281 281 280 279 279 279 279 279 278 275 275 274 274 274 274 275 275 276 277 276 277 275 275 275 276 276 276 275 275 276 277 278 275 273 271 274 275 274 274 275 276 276 276 278 279 280 281 282 283
284 284 284 283 283 283 283 283 283 283 283 285 287 287 287 287 288 286 282 281 280 280 279 279 279 278 277 276 276 275 276 278 278 278 278 279 279 278 278 278 277 278 280 280 279 279 278 276 276 274 277 277 276 277 278 278 276 275 275 275 276 276 275 275 276 275 276 276 272 272 270 272 274 273 272 274 276 275 276 277 279 280 281 282 282
283 283 283 283 283 283 283 283 283 283 283 285 286 287 287 287 288 287 283 281 280 280 279 279 278 278 277 276 276 275 276 276 277 277 278 278 278 277 277 277 277 277 278 278 278 278 278 278 278 277 278 279 278 278 278 278 277 277 277 277 277 275 274 274 274 274 273 275 273 272 268 272 273 272 272 274 275 275 275 277 278 279 280 281 282
282 282 282 282 282 282 283 282 282 282 283 285 286 286 287 287 288 286 283 281 280 279 279 278 278 278 277 277 276 275 275 276 278 280 279 278 277 276 275 276 276 276 277 279 281 281 280 280 280 279 279 278 279 278 278 278 278 278 278 277 275 273 271 270 269 270 269 273 273 271 269 269 272 271 272 274 274 273 275 275 277 278 279 280 281
281 281 281 282 282 282 282 282 281 281 282 284 286 286 287 287 287 285 284 281 280 279 278 278 277 277 277 276 276 275 275 275 279 281 281 280 276 275 275 275 275 276 276 279 281 282 281 280 280 279 280 280 280 280 281 281 280 279 275 273 272 271 268 267 267 268 269 271 271 272 269 268 271 271 271 272 273 272 273 274 276 277 278 279 280
280 280 280 279 279 279 280 280 281 281 281 282 285 286 286 287 286 284 283 281 279 278 278 277 277 277 276 278 277 275 275 275 280 282 282 279 275 275 275 274 274 274 276 276 277 279 281 281 280 280 280 280 281 282 282 282 280 278 273 270 270 269 267 267 265 267 267 269 270 272 268 268 270 271 270 271 272 273 273 274 275 275 277 277 278
279 280 279 278 278 278 278 279 281 280 280 281 283 285 286 287 286 284 283 281 279 278 277 276 276 276 275 277 278 277 276 276 281 282 282 279 275 275 275 275 274 273 275 275 275 276 277 277 278 278 279 280 280 277 276 277 277 276 273 271 270 268 266 266 266 265 265 268 271 273 268 268 269 270 270 268 267 271 272 273 273 273 274 274 275
Wind_Speed
6 5 5 4 4 4 4 3 3 3 4 4 4 5 4 4 4 4 4 4 4 4 4 4 3 3 3 4 3 3 3 2 2 2 2 2 2 5 9 10 10 10 10 10 10 10 8 7 7 9 9 9 9 11 11 10 10 10 11 11 12 12 12 13 13 14 14 14 14 14 14 14 14 14 14 14 15 15 15 15 15 15 15 15 15
7 5 6 6 5 4 4 4 4 4 4 5 3 4 5 4 4 4 5 4 4 3 3 4 4 3 3 3 3 3 2 2 2 2 2 2 3 3 9 10 10 11 11 11 11 11 11 11 11 9 8 8 9 11 11 11 10 11 11 11 11 12 12 13 13 13 14 14 14 14 14 14 14 14 14 14 14 15 15 15 15 15 15 16 16
7 7 6 5 5 5 5 4 4 4 3 4 3 3 4 4 5 5 4 4 4 3 3 4 3 3 3 3 3 2 2 2 2 2 3 3 3 3 4 8 11 11 12 12 12 12 13 12 11 11 11 11 10 10 10 11 10 10 10 10 11 11 12 13 13 13 14 14 14 14 14 14 13 14 14 14 14 15 15 15 15 15 15 16 16
8 7 7 7 6 6 5 5 5 4 4 4 5 3 4 4 4 3 4 4 4 3 2 4 4 3 2 3 2 3 2 2 3 3 3 3 3 2 3 4 9 12 13 13 12 12 12 13 12 13 13 12 12 10 11 11 11 11 11 11 10 11 11 13 13 13 13 13 13 13 14 13 13 13 14 14 14 14 14 14 14 14 15 15 16
8 8 8 7 7 7 6 6 5 5 4 5 6 4 4 4 4 3 4 4 4 4 3 3 4 3 3 3 2 3 2 2 3 3 3 3 3 3 3 3 4 8 12 13 13 13 13 13 13 13 13 13 13 12 12 12 11 11 11 11 11 11 11 12 12 12 12 12 13 13 13 13 13 13 13 14 14 14 14 14 14 14 14 14 15
9 8 7 7 7 7 7 6 5 5 5 5 5 4 4 5 4 4 3 3 4 3 3 3 3 3 3 2 2 3 2 3 3 3 3 3 3 3 3 3 3 4 5 11 13 13 13 13 13 13 13 13 13 13 12 12 11 11 10 10 11 11 11 11 12 12 13 13 13 13 13 13 14 14 14 14 14 14 14 15 14 14 14 15 15
9 9 8 7 8 7 7 6 6 5 5 4 5 4 4 5 5 5 3 3 3 3 2 3 3 3 3 2 3 3 2 3 3 3 3 3 3 3 3 3 4 4 4 4 7 13 13 13 13 13 13 13 13 13 13 12 11 10 10 10 11 12 12 12 12 13 13 13 13 13 14 14 14 15 15 15 15 15 15 15 15 15 15 15 15
10 9 9 8 8 8 7 6 7 6 5 5 4 5 5 4 3 4 6 3 4 3 2 4 3 4 3 2 3 3 3 3 4 4 2 2 3 3 3 3 4 4 4 4 5 8 14 13 13 13 13 13 13 13 13 12 11 10 10 11 11 11 12 12 13 13 13 12 13 14 14 14 14 14 14 14 14 14 15 15 15 15 15 15 16
10 10 9 9 8 7 6 8 7 6 6 5 5 4 5 5 4 3 1 4 4 5 3 3 4 3 3 3 2 3 3 3 3 3 2 4 4 3 3 4 4 4 4 4 4 4 10 13 13 13 13 13 12 13 13 12 12 10 10 11 10 11 11 11 12 12 12 14 14 14 14 14 15 15 15 15 15 15 15 15 15 15 15 15 15
10 10 8 8 8 8 8 8 7 6 6 6 5 4 4 4 5 2 2 3 4 5 5 4 3 3 3 3 3 3 3 3 3 2 3 4 3 3 3 3 4 3 3 4 4 4 4 7 10 11 13 12 12 13 13 13 13 12 10 9 9 9 10 10 11 12 13 14 14 13 14 14 15 15 15 15 16 16 16 16 16 16 16 15 16
10 11 9 9 8 8 8 9 8 7 6 6 6 6 5 4 5 4 2 0 2 3 5 5 5 4 4 4 3 3 3 3 2 2 3 3 4 3 2 3 3 3 3 3 4 4 5 4 4 4 6 12 12 13 13 13 13 12 9 7 8 8 10 11 12 14 13 13 13 14 14 14 14 14 14 14 15 15 15 15 15 15 16 16 16
10 11 9 9 9 8 9 8 8 8 8 8 7 8 9 8 6 6 6 3 2 3 5 7 6 7 5 5 4 4 4 3 3 3 3 2 3 2 3 2 3 3 3 3 4 4 4 4 4 4 4 7 11 12 12 12 12 10 10 9 8 9 11 11 13 13 13 13 14 14 15 15 15 14 14 14 14 15 15 15 16 16 16 16 17
10 11 10 8 8 8 9 8 8 8 8 9 8 7 6 5 5 3 6 6 3 2 3 4 8 6 5 5 4 3 3 3 4 3 3 2 1 2 2 3 3 4 3 3 4 4 4 4 4 4 4 3 5 8 10 10 10 10 10 9 10 10 10 12 12 12 12 13 14 14 14 14 14 14 14 14 14 14 15 15 15 15 16 16 16
10 10 9 10 9 9 9 10 10 9 7 6 7 6 7 6 6 5 1 4 4 5 5 5 2 4 6 4 3 2 1 0 0 1 1 1 1 2 2 3 4 3 3 4 4 4 4 4 4 4 3 3 3 4 4 5 6 11 10 10 10 9 10 10 11 11 12 13 14 14 14 13 14 14 14 15 15 15 15 15 15 15 15 15 16
10 10 9 10 10 10 9 9 10 9 9 9 8 9 8 9 10 8 6 1 2 1 5 4 3 2 3 5 3 3 1 3 2 2 1 1 1 2 1 2 3 3 3 3 3 4 3 3 4 4 4 3 3 3 3 4 6 9 10 10 10 10 9 9 10 11 12 13 13 13 13 12 13 13 14 14 14 15 15 15 15 15 15 15 15
9 11 9 9 10 11 9 10 10 10 9 10 10 9 9 8 8 7 7 6 4 5 3 4 2 7 4 1 2 1 3 7 7 2 1 1 2 2 1 2 2 3 3 3 2 3 3 3 3 3 3 3 2 2 3 3 5 6 8 8 8 9 9 9 10 11 13 14 14 13 12 12 12 13 13 14 14 14 14 14 14 14 15 15 15
11 12 11 12 11 10 10 10 10 10 9 9 10 11 11 9 9 8 11 9 8 3 4 3 5 4 3 6 3 1 3 2 4 2 1 1 3 2 2 1 2 1 2 2 2 2 2 2 2 2 3 2 2 2 2 2 2 3 3 6 5 8 9 9 10 12 14 15 14 12 12 13 13 13 14 14 14 14 14 14 15 15 15 15 15
11 11 11 10 11 10 10 10 10 10 9 9 8 7 9 10 12 10 11 7 9 7 5 2 1 1 3 2 1 2 5 2 4 4 2 1 1 3 2 2 1 2 2 1 1 1 1 1 1 2 2 2 1 1 1 1 2 2 2 4 6 7 8 9 11 13 15 15 13 12 12 13 13 13 14 14 14 14 14 15 15 15 15 15 15
11 11 11 10 10 10 11 10 10 10 9 9 9 11 10 11 8 9 9 6 7 9 10 7 3 1 0 0 1 2 2 7 4 3 3 2 3 4 5 3 2 2 3 2 1 0 1 1 2 2 2 1 1 1 1 1 2 3 5 6 5 6 7 8 11 14 15 14 13 13 13 13 13 13 14 14 14 15 15 15 15 15 16 16 16
10 11 11 11 11 10 10 10 11 10 10 11 11 10 8 7 9 9 6 6 9 10 10 8 11 6 3 3 3 3 3 4 3 5 3 4 3 1 3 3 3 3 3 3 2 2 3 2 2 2 1 1 1 0 1 1 1 2 2 5 4 5 7 9 11 13 12 12 12 12 12 12 12 13 14 14 14 15 15 15 15 16 16 16 17
8 10 10 10 10 10 10 10 10 11 10 10 9 10 12 12 11 10 10 8 8 7 9 10 8 8 8 2 3 3 2 3 2 3 3 4 2 4 4 2 2 4 3 2 2 1 2 3 3 3 2 1 0 1 1 0 1 1 2 3 3 5 6 9 11 12 10 10 10 10 10 11 12 12 13 14 14 14 14 14 15 16 16 16 17
8 9 9 10 9 10 10 11 11 10 10 11 10 11 11 11 12 12 10 11 7 7 10 9 8 7 9 9 6 4 2 2 1 3 2 1 3 5 4 5 5 2 2 2 1 1 2 4 4 3 2 1 1 1 1 1 1 1 1 0 3 5 7 9 12 12 10 10 10 10 11 11 12 13 13 14 14 14 14 15 15 15 16 16 17
7 7 9 10 10 10 10 10 9 11 10 11 12 12 11 11 10 11 12 13 9 9 8 8 8 8 9 9 12 12 12 9 9 5 5 4 2 2 2 4 3 1 1 1 1 2 3 4 4 3 2 1 2 2 2 2 3 3 2 2 2 4 7 11 12 11 10 10 10 10 11 11 12 13 13 13 14 14 14 15 15 15 16 16 16
8 8 10 10 9 9 10 9 10 9 10 9 9 10 8 8 9 9 9 10 9 8 8 10 10 7 9 8 9 10 8 8 9 8 9 7 7 4 5 4 2 5 1 1 3 5 3 3 3 3 2 1 1 1 2 3 3 5 2 2 3 6 9 12 12 11 10 10 10 11 11 12 12 12 13 13 14 15 15 15 15 16 16 17 17
11 11 12 14 11 10 11 12 11 10 9 9 10 10 9 9 9 10 10 11 10 10 10 11 12 11 11 8 6 6 8 3 6 8 5 4 6 4 2 1 2 2 2 1 1 1 2 2 2 2 1 1 0 1 2 3 3 4 2 2 5 8 10 12 12 11 10 10 11 11 12 13 13 13 13 14 15 15 16 16 16 17 17 17 18
12 14 11 11 11 13 13 11 12 11 14 13 11 11 10 10 10 11 12 9 8 12 10 11 9 10 6 8 7 7 5 4 6 7 8 8 6 7 6 1 0 2 1 1 1 1 2 1 1 1 1 1 1 1 3 3 3 3 2 2 4 8 11 13 13 12 11 12 12 13 12 13 13 13 13 14 15 15 16 16 17 17 18 18 19
9 8 10 12 13 10 13 12 12 13 12 11 12 10 10 9 9 10 9 8 10 9 9 11 10 11 10 9 8 6 6 6 6 7 7 9 9 8 8 6 2 2 3 2 1 4 3 3 2 2 2 2 2 3 3 3 2 1 2 2 3 7 11 13 13 12 12 13 13 13 13 13 13 13 13 14 14 14 15 16 16 17 17 18 18
8 9 11 10 11 13 13 14 14 11 12 13 11 11 11 11 9 10 11 7 10 11 9 9 10 12 10 8 6 7 6 6 6 7 7 6 5 7 8 7 6 3 3 3 4 4 5 5 2 1 1 2 3 3 4 2 1 4 4 4 5 6 9 12 13 13 13 14 13 13 13 13 13 13 13 13 14 14 14 15 15 16 17 18 18
8 9 9 10 10 13 12 11 13 13 11 11 11 10 11 11 11 11 12 10 9 11 9 9 9 9 8 10 8 7 7 6 5 5 6 4 4 5 6 10 7 5 3 4 4 5 4 4 4 3 1 2 3 3 3 2 2 4 4 5 5 6 8 12 13 13 14 14 14 14 13 12 12 12 12 13 14 14 15 16 16 17 18 19 20
9 9 11 12 12 12 11 10 10 10 11 9 10 10 10 10 10 10 9 10 11 8 9 9 9 7 7 7 7 6 6 7 6 6 6 6 6 5 5 2 5 8 5 5 3 3 5 5 2 3 3 3 3 3 2 3 5 6 5 5 5 6 10 13 13 14 14 14 14 14 13 13 13 13 14 14 15 16 17 17 18 18 19 20 21
10 10 10 11 11 11 11 10 10 11 10 9 9 9 10 10 10 10 10 10 10 10 9 9 8 8 9 10 8 6 7 7 6 6 5 6 5 5 4 3 3 4 7 4 2 2 3 7 5 2 5 6 5 5 6 6 6 6 5 5 6 8 12 10 12 13 14 14 14 15 15 15 15 14 15 15 15 17 18 19 19 19 20 20 21
11 11 12 13 12 11 10 11 11 10 10 9 9 9 9 10 9 9 10 11 11 11 10 8 7 9 10 10 9 7 8 7 7 7 7 5 5 5 5 5 3 3 5 5 8 5 2 4 6 5 4 5 5 5 6 4 4 6 5 6 7 10 7 7 10 12 14 14 14 14 15 14 14 14 14 14 15 16 18 18 19 19 19 20 20
10 11 11 11 11 11 11 13 11 11 10 10 9 8 10 10 10 10 9 11 12 10 10 10 9 10 10 10 10 8 8 9 7 7 6 7 6 5 5 5 5 5 6 6 8 6 3 3 5 6 3 3 4 5 4 3 3 4 5 5 6 6 6 6 7 10 12 14 14 14 14 14 13 14 14 15 16 17 18 19 19 19 19 19 20
11 13 11 12 11 11 11 11 11 11 11 11 10 10 11 11 12 8 10 12 12 11 10 11 12 9 10 10 10 10 10 9 9 9 8 8 8 8 7 8 7 7 6 6 6 5 5 4 4 3 3 3 5 2 3 4 5 5 7 6 5 5 5 6 6 6 10 13 13 14 14 15 15 15 17 17 18 18 19 19 19 19 19 20 21
10 11 12 12 11 12 11 10 11 11 12 12 11 11 11 12 12 11 10 12 13 13 13 13 12 10 11 11 11 10 8 10 9 8 9 9 8 9 9 7 8 7 7 6 6 6 7 4 4 3 4 4 5 3 2 4 6 7 8 8 7 6 6 7 7 6 10 15 16 16 15 15 16 17 17 18 18 18 19 20 20 20 21 21 22
10 10 11 13 12 12 12 13 12 12 13 13 13 12 13 12 12 12 11 11 12 12 13 13 14 14 14 12 12 12 12 11 11 10 10 10 10 9 9 8 7 8 8 7 6 4 5 5 4 5 4 5 5 4 4 5 7 7 6 7 7 7 8 8 8 9 11 17 18 17 16 15 16 16 16 17 17 18 19 20 21 21 21 22 22
11 10 10 11 13 12 12 13 13 14 14 13 13 13 12 12 13 12 11 11 12 13 13 13 13 15 14 15 13 13 13 12 10 11 11 13 10 10 10 9 8 8 6 7 7 5 5 7 5 5 5 5 4 4 4 4 5 6 6 7 7 8 8 8 8 7 12 18 18 17 15 15 14 14 15 15 16 18 20 21 21 22 22 23 23
11 11 12 11 12 13 12 13 14 13 11 12 13 12 13 12 12 12 11 11 12 12 11 12 13 13 14 14 13 14 14 15 14 12 12 15 12 11 11 10 9 8 9 9 8 8 7 6 6 5 6 6 5 5 5 6 6 5 5 5 6 7 7 8 8 7 6 8 7 7 10 11 12 13 14 14 15 19 20 21 22 22 22 23 24
11 11 11 12 12 13 14 12 12 12 12 12 12 13 12 12 13 13 13 12 12 13 14 12 11 12 13 13 14 15 16 15 14 15 15 14 12 14 13 12 11 11 11 10 10 10 8 7 6 6 5 5 5 5 5 6 7 6 5 4 5 5 6 8 9 8 8 9 12 14 12 10 11 10 11 13 16 19 21 21 22 23 23 23 24
11 12 12 13 13 12 13 13 14 12 13 12 12 12 12 12 15 16 14 14 13 15 15 16 15 14 13 13 14 16 16 15 15 15 16 15 12 13 11 10 11 11 10 9 9 9 8 8 7 7 6 5 6 6 5 6 6 7 6 5 6 6 6 7 9 10 9 8 7 6 7 8 8 10 12 14 19 21 22 21 21 22 23 23 23
9 11 12 12 12 13 13 13 13 13 14 15 13 13 13 15 16 17 14 13 12 12 11 11 12 11 10 10 11 12 17 18 16 15 17 15 13 12 11 12 12 12 9 8 9 9 8 7 7 6 6 7 7 7 8 8 8 6 3 5 7 7 8 8 9 9 9 8 6 5 5 5 6 6 8 9 11 15 16 19 17 21 21 21 22
9 9 10 11 12 14 13 13 13 12 13 12 15 21 17 16 16 15 15 16 17 13 13 12 11 10 10 9 11 12 17 19 21 22 23 23 20 14 15 15 13 12 11 9 10 9 9 9 9 9 9 9 9 10 8 7 6 4 5 6 6 6 7 8 8 8 6 5 4 5 6 5 7 9 9 10 9 10 9 9 9 13 17 21 22
9 9 10 11 12 11 13 13 14 13 13 12 18 19 24 22 16 15 16 15 15 13 12 12 12 12 10 10 8 13 16 17 19 25 26 26 24 21 21 22 20 17 16 11 9 10 10 9 8 9 9 8 9 9 8 6 6 6 5 5 6 6 6 6 6 6 5 3 6 9 9 7 8 9 8 9 9 8 9 9 15 18 21 22 23
8 8 9 11 11 11 10 12 13 13 13 14 17 21 23 24 20 15 13 12 13 14 11 11 10 10 12 10 8 7 10 13 13 17 21 23 23 22 23 23 22 21 18 14 14 10 9 9 9 10 8 9 9 9 8 7 7 6 6 6 7 7 7 7 8 7 3 4 7 10 10 7 8 9 9 8 8 7 8 12 17 20 21 21 23
6 6 9 9 10 10 11 12 13 13 13 12 18 21 23 24 24 19 12 13 12 13 10 11 10 10 9 10 9 9 8 15 13 11 13 16 20 22 21 22 22 22 20 16 13 11 11 9 10 10 10 9 9 9 9 8 6 5 5 6 7 8 8 8 8 8 9 8 9 9 9 6 7 8 8 8 8 7 8 12 16 19 20 20 22
7 7 7 9 9 10 11 12 12 13 13 13 18 20 22 24 24 21 14 14 14 14 11 11 10 11 11 11 11 10 9 12 10 12 12 13 14 15 14 14 13 17 19 20 18 16 13 10 10 9 10 10 9 8 9 9 7 6 6 7 7 8 7 7 8 10 10 6 7 10 8 6 5 7 9 8 6 7 8 12 17 18 20 22 23
9 8 8 8 8 8 9 9 11 11 11 13 17 21 22 23 24 21 14 14 12 13 10 10 10 10 11 11 12 11 11 12 11 14 13 13 13 13 14 13 12 12 13 14 14 12 11 9 10 9 9 11 10 9 9 7 8 8 7 8 5 3 3 5 6 7 7 6 6 5 6 3 6 10 8 5 6 7 7 11 15 16 19 22 23
7 7 8 7 8 9 9 9 10 12 10 12 17 20 22 23 24 15 13 14 14 13 10 10 11 10 11 11 11 10 12 12 17 25 20 14 15 15 15 13 10 10 11 12 15 13 11 10 11 11 10 8 9 8 8 8 7 7 6 2 1 2 1 4 6 5 6 5 5 6 8 7 5 9 12 5 7 9 9 9 13 16 16 19 22
10 9 9 8 7 7 8 9 10 11 10 12 17 20 22 24 19 13 13 12 13 13 10 9 9 10 9 12 11 11 12 12 21 26 25 20 14 15 14 13 11 10 9 10 17 18 15 12 12 12 12 14 15 15 14 15 11 5 4 2 5 1 2 4 5 4 5 3 6 6 6 8 5 8 14 10 7 11 11 8 5 10 16 18 20
9 10 9 9 8 7 8 9 10 11 11 10 16 19 21 23 19 14 12 12 13 13 12 9 8 8 9 17 15 11 11 14 24 27 27 20 14 15 14 14 13 11 9 7 7 12 17 13 13 13 15 14 15 16 14 12 8 4 3 5 3 1 3 4 5 2 5 7 7 3 2 5 8 8 11 14 12 6 5 7 6 6 14 18 21
9 8 7 8 9 7 8 10 9 11 10 9 14 18 21 23 19 13 12 11 12 13 11 11 8 6 9 15 22 18 13 19 28 27 28 22 15 15 16 14 12 12 10 11 11 11 11 12 12 12 12 15 9 3 4 5 7 5 3 4 3 3 5 5 5 3 3 2 2 3 2 6 7 6 7 12 10 5 6 1 10 11 10 12 14
Wind_Direction
162 162 152 161 150 158 162 159 153 151 152 144 139 134 128 131 127 124 120 117 114 107 101 92 89 82 89 93 87 80 75 75 68 59 57 50 29 25 31 40 46 51 59 63 67 66 66 74 74 66 60 60 62 61 58 57 59 59 57 57 56 53 52 53 52 52 51 50 49 48 47 46 45 43 42 40 37 34 32 29 26 25 24 21 19
161 159 164 161 162 159 165 164 163 159 158 147 157 138 138 134 128 126 127 125 115 113 114 100 87 88 84 93 83 81 82 80 73 67 70 61 44 37 26 35 46 53 57 62 63 65 69 67 67 64 60 58 61 59 55 55 57 56 52 50 52 50 49 50 49 50 48 48 46 45 44 44 43 43 42 40 39 35 32 29 26 25 24 22 20
162 161 166 160 164 168 170 160 163 166 160 140 143 144 138 140 146 141 138 129 112 117 116 104 94 81 79 82 83 90 84 79 83 79 72 60 58 46 25 29 41 44 52 63 64 65 63 62 61 56 54 54 56 58 56 55 56 53 49 50 48 50 48 47 48 48 47 45 44 43 43 42 41 41 41 40 39 38 34 30 27 25 24 22 19
163 163 166 164 169 172 165 170 167 158 158 148 141 145 135 121 112 104 110 113 116 111 105 111 99 91 90 85 88 88 87 88 87 78 70 65 62 55 50 34 39 45 43 49 62 64 64 60 57 54 50 49 52 54 55 54 52 51 49 47 47 48 46 46 46 46 44 43 43 42 41 40 39 40 40 39 39 37 35 33 29 26 25 22 19
169 166 167 170 165 165 170 175 163 157 149 145 135 134 129 125 113 119 114 114 115 109 107 101 106 106 106 96 107 97 100 107 98 89 78 71 67 66 65 56 53 46 43 44 49 57 60 58 55 53 50 48 47 49 50 48 48 47 47 49 47 47 46 46 45 44 43 43 42 42 41 41 41 41 40 40 38 37 35 33 31 28 26 23 21
164 167 167 166 168 173 169 165 162 155 145 150 147 149 138 134 138 140 134 137 128 132 136 113 104 116 110 116 108 109 122 110 101 91 89 79 71 71 73 70 63 61 52 45 44 52 54 55 55 52 50 47 44 46 46 45 45 46 47 50 51 48 46 44 44 44 44 43 41 41 41 40 40 41 39 37 36 35 35 33 30 27 25 22 20
173 165 168 168 168 168 175 167 156 153 151 159 147 143 143 149 156 142 126 122 114 124 126 115 128 119 115 127 118 122 120 113 116 103 89 91 85 77 71 72 72 73 61 63 43 48 52 52 52 49 47 45 45 43 44 42 39 45 46 47 51 46 44 44 46 45 44 43 44 42 42 38 38 38 37 36 34 32 28 27 25 24 22 20 17
173 169 165 174 173 172 170 155 158 152 152 150 151 154 157 151 167 159 141 145 140 122 127 121 121 113 116 113 118 123 119 121 117 107 94 98 86 80 75 75 71 70 67 64 60 48 50 50 49 45 42 40 42 42 41 41 39 47 51 47 47 45 42 44 45 46 45 45 46 43 40 37 35 33 31 29 28 27 25 22 22 19 18 16 14
174 173 169 173 174 168 160 159 154 153 154 156 162 159 158 158 163 196 243 150 154 133 124 118 112 105 107 102 99 118 116 117 117 113 111 88 92 89 88 77 77 74 66 66 62 58 46 46 44 42 35 37 37 39 40 39 38 41 46 44 45 49 46 50 50 49 48 47 44 40 36 34 33 31 30 27 26 24 21 19 19 17 16 14 11
176 176 176 172 168 161 156 156 154 151 153 161 165 156 165 173 159 181 178 160 152 150 134 119 111 108 93 85 91 95 103 109 109 108 106 104 92 87 85 90 82 75 74 70 66 59 53 45 42 40 33 33 36 35 37 38 32 31 42 46 51 56 54 56 56 53 51 46 41 38 36 33 32 29 26 24 22 19 17 15 14 12 11 10 8
177 175 173 169 164 162 158 159 156 154 153 160 162 170 172 183 175 148 133 299 149 141 133 125 109 91 80 69 80 76 81 83 94 99 97 101 103 104 108 89 92 78 76 72 67 63 54 43 37 34 31 30 35 33 35 37 28 31 42 54 57 60 59 58 56 50 45 41 39 37 33 30 26 23 22 20 19 16 14 12 10 8 8 6 4
178 176 173 168 164 164 158 157 159 157 161 168 177 181 178 174 180 155 141 112 69 110 132 122 91 80 76 72 59 70 75 85 89 92 98 97 109 125 109 118 92 83 73 72 69 63 57 49 44 39 35 31 35 31 33 34 19 28 41 52 56 58 58 54 52 42 42 39 37 31 26 23 20 19 18 17 16 14 11 10 8 5 3 3 360
180 175 174 164 165 155 154 163 163 168 172 183 174 167 169 170 146 157 152 144 141 155 172 147 126 86 71 72 72 50 76 80 90 79 73 90 111 116 120 106 90 79 66 63 61 54 54 45 43 40 35 29 33 29 28 29 19 26 40 48 48 50 57 52 48 43 41 39 29 23 19 17 16 16 15 12 13 11 8 8 4 3 1 358 357
174 175 172 168 159 165 168 166 167 173 173 155 155 162 161 164 162 148 293 168 147 176 183 167 150 153 147 129 76 90 75 315 74 26 3 81 119 100 89 98 94 86 80 70 59 51 45 42 39 37 35 31 30 25 20 18 20 18 30 36 42 47 55 55 46 46 42 30 22 17 15 14 13 12 12 9 8 7 5 2 1 359 357 355 355
176 177 169 174 173 164 171 165 171 161 164 170 168 173 177 175 183 173 152 92 102 159 204 261 127 105 106 120 152 149 176 242 237 255 273 202 165 129 96 93 96 92 90 83 65 50 42 35 32 29 27 24 26 24 24 19 16 12 19 18 23 43 55 48 43 42 32 21 16 13 12 14 13 11 10 7 5 2 0 358 356 356 352 352 350
169 175 181 179 172 175 166 169 170 176 171 166 174 178 174 182 189 196 164 143 184 183 217 207 210 154 161 270 132 184 157 218 203 153 349 273 238 174 120 121 121 119 104 85 75 60 46 35 26 23 19 17 17 18 15 17 2 11 1 353 354 46 37 38 37 31 17 12 9 8 9 11 9 8 6 3 360 357 356 353 352 351 348 348 346
177 184 181 180 180 175 171 170 169 172 173 176 177 185 182 184 182 177 192 174 162 169 187 177 235 310 145 132 110 225 232 82 149 199 116 194 222 210 168 157 162 140 107 108 121 84 52 42 28 16 6 7 12 10 9 2 6 12 347 327 357 61 37 26 28 17 7 4 5 6 7 7 5 2 1 358 357 354 351 350 350 347 346 345 343
181 184 187 180 180 176 172 168 171 172 179 181 176 168 183 186 195 192 194 224 165 150 157 192 289 222 281 345 327 196 155 178 164 197 127 265 266 224 222 207 238 192 172 164 141 100 42 24 25 357 354 353 0 355 351 359 352 355 0 345 24 58 48 30 17 7 359 359 2 3 3 2 359 359 357 356 354 351 349 347 345 344 343 341 340
182 183 185 182 177 178 176 175 170 172 172 172 180 188 186 193 178 196 203 173 156 168 174 168 136 219 243 350 89 0 101 139 197 89 185 162 225 220 227 216 232 233 225 223 194 220 276 317 337 337 336 334 340 348 328 3 348 344 342 341 24 50 46 29 11 359 356 356 358 359 358 357 356 355 353 352 349 346 346 344 342 343 342 341 340
183 184 184 181 180 180 177 171 174 177 172 185 185 184 181 184 191 198 182 191 193 181 170 171 174 166 151 133 75 72 43 31 72 165 142 167 190 220 269 242 250 233 237 230 249 282 283 285 304 320 318 342 327 313 338 352 337 332 337 342 15 44 35 17 2 356 354 352 352 355 353 353 351 350 349 347 345 344 343 341 339 340 340 338 337
190 186 188 185 185 179 176 179 177 177 181 185 187 178 185 180 182 186 195 195 205 195 158 183 188 165 148 123 104 81 60 40 73 57 152 168 166 182 201 156 240 233 217 244 289 293 276 286 298 300 296 307 317 270 248 246 251 297 314 334 31 29 20 359 353 351 346 343 348 348 349 347 345 345 344 343 341 340 339 337 336 337 336 334 334
193 191 187 190 184 181 184 185 185 180 183 188 181 183 187 192 192 191 189 195 195 196 189 183 191 166 175 147 150 137 98 117 107 128 43 5 170 187 196 185 208 157 126 195 248 271 278 282 284 279 262 238 173 206 217 213 204 222 255 217 64 24 355 348 348 343 339 338 344 344 340 342 341 340 340 339 339 336 336 335 335 335 333 332 331
186 192 195 190 191 188 186 191 187 188 188 185 191 186 186 187 186 190 196 195 190 191 197 186 182 172 175 173 169 172 170 175 179 185 168 156 137 209 191 205 201 213 110 15 276 266 271 273 272 259 238 213 178 189 195 189 209 214 161 105 45 2 344 343 341 335 330 334 338 336 334 336 336 335 336 336 334 333 332 333 333 332 331 331 330
185 190 197 191 190 191 192 190 193 190 196 193 185 189 182 182 186 191 195 200 194 191 190 175 184 181 189 191 185 182 175 173 176 165 171 182 169 155 173 149 211 223 155 231 250 264 256 252 251 266 277 259 177 182 177 194 183 157 116 42 2 351 340 336 331 326 325 331 333 332 332 331 331 332 331 331 330 331 332 332 331 332 331 330 328
196 195 195 189 187 183 188 192 191 196 192 186 195 184 181 185 187 191 195 195 193 187 189 190 180 180 188 198 186 187 187 173 153 168 170 122 152 126 184 188 188 143 139 159 195 223 248 231 215 234 256 264 90 191 183 197 181 155 143 38 352 340 333 330 326 324 326 329 329 329 327 325 326 329 330 330 331 332 332 331 332 331 330 328 328
190 202 188 184 190 199 193 190 194 190 193 193 186 184 181 185 185 191 197 198 189 199 200 189 194 203 180 171 191 190 181 170 166 152 158 149 169 167 142 158 331 237 104 202 204 192 143 214 186 196 213 203 181 177 191 183 173 152 94 352 336 333 331 326 324 324 324 325 325 323 320 320 322 327 328 329 331 331 331 330 330 329 328 328 326
205 205 193 195 198 191 195 195 196 195 190 186 192 181 183 182 189 195 195 194 196 193 204 184 188 189 186 192 180 185 176 176 169 178 167 177 161 161 150 148 209 232 224 194 222 239 147 169 163 205 207 196 180 177 181 179 187 88 352 313 319 324 324 321 320 319 319 320 319 316 315 315 321 324 327 329 330 331 330 330 328 326 326 325 323
206 200 206 198 199 200 200 203 198 194 192 192 184 183 180 183 185 187 196 174 191 193 201 191 198 194 188 179 177 193 174 180 186 169 181 174 161 160 169 162 160 197 186 195 180 223 202 181 174 159 227 188 144 164 157 170 212 316 329 321 316 314 315 314 312 313 315 314 313 313 313 316 321 324 326 329 330 329 327 326 324 323 322 321 320
204 200 198 203 206 208 207 205 201 200 196 194 190 186 180 188 187 185 193 179 185 194 189 196 197 185 188 184 188 176 182 176 172 174 171 164 172 173 183 180 179 183 181 206 184 165 180 194 173 184 167 223 159 146 161 198 266 304 304 306 303 302 301 302 303 307 308 307 308 308 309 313 318 323 327 330 332 329 328 327 326 324 322 321 319
200 197 196 196 203 210 214 213 211 205 204 196 194 189 183 193 192 193 189 169 187 187 194 191 191 183 184 181 187 184 173 179 180 168 171 171 164 174 178 173 177 182 175 191 193 162 136 198 184 179 197 193 155 155 187 248 255 264 271 280 286 287 290 295 300 301 301 304 305 307 312 318 325 329 332 334 333 330 328 326 324 322 321 320 320
198 196 194 196 196 197 201 207 206 209 205 203 195 195 191 195 192 194 181 180 186 189 184 183 185 177 183 186 185 183 170 177 165 169 174 168 170 164 159 149 182 178 156 157 190 154 141 163 173 175 163 178 166 193 213 222 223 240 271 281 276 273 282 284 284 291 299 305 310 316 323 326 329 332 333 332 329 327 324 322 321 320 319 319 318
202 191 195 200 197 194 194 201 202 201 203 203 197 198 193 203 191 191 185 178 187 189 181 182 175 186 183 188 186 178 169 169 172 175 173 172 160 165 162 161 159 173 153 166 197 163 186 143 148 152 160 188 203 221 224 226 215 241 270 273 276 282 287 286 287 293 301 309 315 318 318 319 323 325 325 325 323 319 316 315 315 316 316 316 316
194 196 197 195 195 198 197 201 198 196 197 197 197 199 202 202 198 196 179 187 188 190 173 181 182 184 190 188 184 180 164 173 173 166 168 167 164 165 163 165 171 175 172 170 187 194 129 135 146 162 173 218 237 194 233 247 272 273 265 265 269 275 281 283 285 280 287 300 306 308 310 313 319 322 324 324 321 318 316 314 314 314 313 313 313
194 203 198 197 195 194 198 202 197 195 197 200 196 199 205 203 202 192 191 187 192 187 179 182 183 185 183 183 183 178 176 176 165 172 168 166 172 168 177 180 179 178 188 161 199 188 187 143 172 169 205 212 250 206 261 287 289 295 292 290 273 264 268 272 271 261 270 297 306 310 313 317 322 325 326 324 320 317 315 314 312 311 312 312 310
204 203 199 195 194 195 197 197 195 196 194 195 197 199 205 204 204 202 196 189 189 185 186 189 180 175 179 189 185 169 165 174 176 173 167 174 174 176 177 179 179 178 178 195 160 198 195 174 152 192 207 220 237 270 292 291 293 298 299 300 304 302 293 294 291 283 306 314 314 313 315 319 322 323 322 318 316 314 311 310 310 310 310 310 309
210 207 201 200 195 194 197 197 195 197 197 198 196 197 203 202 207 207 202 199 198 196 191 182 180 181 186 179 184 174 172 174 173 172 178 176 177 178 173 178 180 175 179 183 210 175 182 170 187 192 209 215 226 237 255 276 285 289 287 292 290 292 299 304 306 307 312 308 306 306 310 313 313 312 309 308 308 306 304 303 303 304 304 304 304
214 206 208 203 203 199 200 198 198 200 200 196 195 195 195 200 206 208 207 204 203 203 197 191 184 184 182 188 175 168 172 175 171 177 176 176 175 173 177 177 178 173 168 184 190 182 171 190 170 185 199 222 231 239 240 256 268 266 271 275 291 300 303 299 294 289 284 284 287 288 290 294 296 297 296 297 299 299 298 298 299 300 300 300 299
217 212 209 205 207 207 206 205 204 203 198 197 202 200 197 195 199 204 207 208 207 206 203 200 193 190 187 185 173 174 175 179 180 175 172 177 173 175 176 177 174 168 175 184 185 186 191 200 182 188 202 217 236 233 218 224 238 254 254 258 264 273 281 282 272 268 261 262 266 265 266 271 274 280 284 291 295 294 293 294 295 296 297 297 295
221 215 212 212 213 214 213 209 208 201 199 200 201 200 198 196 197 198 200 204 212 214 212 205 200 196 194 186 180 179 182 183 173 176 174 173 175 178 179 174 172 171 176 180 181 182 188 190 203 209 211 216 220 239 210 211 225 230 247 260 266 247 241 249 266 262 251 252 253 254 261 269 274 278 282 285 286 286 288 290 292 293 294 293 290
224 221 215 214 216 213 217 213 212 206 204 205 203 201 197 195 201 205 202 202 204 215 219 213 208 204 198 192 190 186 184 184 179 176 170 173 169 176 179 170 170 169 174 173 172 179 182 188 196 197 205 206 216 229 233 217 218 225 222 233 252 261 254 255 253 261 260 252 256 245 245 258 265 269 274 278 277 278 281 285 285 285 285 286 287
228 226 222 216 217 217 217 215 213 209 211 210 206 201 199 201 203 204 201 199 197 203 207 216 215 211 207 205 197 188 189 189 182 175 179 168 161 168 173 167 167 171 171 170 174 173 177 180 191 197 199 204 208 203 209 208 208 205 192 213 249 258 264 266 263 254 258 259 256 252 259 257 269 271 278 272 267 269 274 274 277 278 277 279 284
234 228 224 221 219 219 216 216 214 213 217 215 212 206 199 200 200 203 204 206 203 199 200 199 206 209 209 207 209 194 186 183 183 182 183 184 188 178 166 168 171 170 175 169 177 178 173 181 191 184 190 206 203 203 202 204 198 202 216 229 247 256 257 259 262 255 248 247 250 271 276 275 272 275 268 261 262 261 265 267 267 275 281 285 289
239 232 224 226 223 221 219 216 215 217 219 219 212 204 205 200 197 203 204 207 207 205 202 199 199 194 199 205 201 197 192 186 184 181 181 184 182 184 181 178 174 170 173 176 180 173 176 185 181 187 194 195 198 200 200 193 199 200 213 229 245 256 260 272 277 274 240 212 284 295 288 275 265 271 264 256 258 257 260 261 268 275 281 288 292
255 236 232 231 229 224 223 222 222 223 224 220 208 208 206 203 199 201 205 207 207 212 209 202 197 187 191 188 192 190 195 192 181 183 185 184 183 181 180 182 185 187 184 170 166 172 184 177 185 193 185 193 192 190 189 186 192 205 218 234 241 248 256 260 267 271 275 338 306 296 286 273 257 262 262 250 249 251 255 265 275 281 286 289 293
271 255 245 239 236 231 225 227 229 228 230 211 209 210 207 205 202 198 208 207 206 212 208 207 199 191 183 183 181 192 199 194 188 185 175 180 183 179 178 180 186 190 195 197 187 175 167 176 189 192 191 187 189 192 182 183 185 206 224 232 238 246 253 257 263 280 291 308 301 289 286 275 258 261 265 259 249 256 266 264 271 282 288 293 294
284 266 252 243 242 236 232 232 234 234 232 223 212 210 207 206 203 198 209 207 211 213 208 204 201 194 186 183 184 184 182 189 190 183 176 172 172 173 175 179 183 192 195 195 192 186 178 182 182 185 189 190 192 178 179 182 196 209 223 236 245 250 250 259 282 287 291 301 289 297 288 255 231 282 274 268 247 263 264 260 272 286 295 296 296
295 283 268 260 247 241 243 240 242 241 236 219 211 211 208 206 205 200 207 210 212 215 209 205 202 196 187 185 184 182 173 184 185 180 173 174 171 174 177 180 179 183 190 192 192 186 184 184 188 189 193 198 193 179 181 198 211 218 226 241 246 254 280 288 282 275 284 276 269 276 272 258 301 290 276 262 277 276 270 275 278 287 296 299 299
287 281 279 265 258 249 242 240 243 246 242 218 214 213 209 208 204 204 207 210 213 213 205 201 199 195 192 187 183 177 176 182 185 186 184 174 176 176 178 180 172 178 191 194 190 188 187 191 196 196 191 178 173 186 200 204 209 220 221 172 166 238 288 291 280 290 279 273 251 263 274 283 297 296 294 292 288 288 283 277 281 289 292 294 297
303 294 282 270 266 259 250 243 241 246 244 224 218 212 211 208 204 207 208 210 215 214 206 197 197 198 190 190 185 181 180 180 187 188 186 178 177 177 175 176 178 176 185 185 195 189 179 172 171 174 185 198 204 205 207 210 208 178 115 232 248 177 271 275 279 266 267 285 268 256 267 285 310 316 303 302 295 287 283 276 276 292 294 293 292
291 284 286 287 275 263 254 248 239 244 243 227 222 217 212 208 202 205 206 209 213 213 212 198 195 195 191 193 188 183 181 181 187 189 188 180 178 177 173 172 176 179 182 158 168 194 192 194 198 205 212 210 209 215 217 216 211 186 138 210 212 151 249 248 258 259 295 288 273 231 219 273 315 318 311 306 297 229 239 289 301 300 304 300 295
274 279 273 269 270 263 256 250 247 244 247 235 224 223 216 211 207 206 205 207 211 213 207 206 197 182 192 196 193 192 183 182 187 190 187 182 180 177 176 171 176 184 185 166 176 180 188 198 206 206 211 213 213 158 110 159 194 203 172 192 204 210 235 240 248 268 282 241 164 92 348 303 331 315 344 329 311 281 161 20 327 307 295 297 300